Location: All Nations United Methodist Church
(33.0215°N, 96.7483°W)
Time: 15:09:50
(UTC+00:00)

CZ-4B R/B - Pass Details

Date: 24 January 2021
Orbit: 808 x 882 km, 99.1° (Epoch: 06 March)

Event Time Altitude Azimuth Distance (km) Brightness Sun altitude
Rises 12:45:47 0° 14° (NNE) 3,478 6.4 -8.9°
Reaches altitude 10° 12:48:12 10° 16° (NNE) 2,531 5.7 -8.4°
Maximum altitude 12:53:50 79° 104° (ESE) 886 3.5 -7.3°
Drops below altitude 10° 12:59:21 10° 190° (S) 2,476 5.8 -6.2°
Sets 13:01:41 0° 191° (SSW) 3,398 6.5 -5.8°
